FW1358 Weather Reports


time (UTC)temp
F
wind
direction
speed
knots
gust
knots
rain 1hr
in
rain 24hr
in
rain mn
in
humidity
%
barometer
mb
20260507155306 63 234 0.0 0.0 0.00 0.08 0.01 60 1016.4
20260507152306 62 234 0.0 1.7 0.00 0.08 0.01 64 1016.3
20260507150802 60 234 0.0 0.0 0.00 0.08 0.01 71 1016.2
20260507145803 59 234 0.0 1.7 0.00 0.08 0.01 71 1016.2
20260507145306 59 234 0.0 1.7 0.00 0.08 0.01 72 1016.1
20260507144802 58 286 0.0 0.9 0.00 0.08 0.01 73 1016.1
20260507144303 58 244 0.0 0.0 0.00 0.08 0.01 76 1016.2
20260507143803 58 244 0.0 0.9 0.00 0.08 0.01 75 1016.1
20260507143302 58 244 0.0 0.9 0.00 0.08 0.01 74 1016.2
20260507142803 57 203 0.0 0.9 0.00 0.08 0.01 77 1016.2
20260507141802 57 293 0.0 0.9 0.00 0.08 0.01 80 1016.0
20260507141302 56 314 0.0 0.9 0.00 0.08 0.01 78 1016.0
20260507140803 56 314 0.0 1.7 0.00 0.08 0.01 81 1016.0
20260507135803 56 348 0.0 1.7 0.00 0.08 0.01 83 1015.9
20260507135306 55 242 0.0 1.7 0.00 0.08 0.01 87 1015.9
20260507134303 55 256 0.0 0.9 0.00 0.08 0.01 87 1015.8
20260507132306 53 234 0.0 1.7 0.00 0.09 0.01 89 1015.6
20260507131803 53 271 0.0 1.7 0.00 0.10 0.01 90 1015.7
20260507130803 53 344 0.0 0.0 0.00 0.14 0.01 90 1015.7
20260507130302 53 344 0.0 0.0 0.00 0.16 0.01 90 1015.8
20260507125306 52 344 0.0 0.0 0.00 0.18 0.01 92 1015.7
20260507124802 52 344 0.0 0.0 0.00 0.19 0.01 92 1015.6
20260507124302 52 344 0.0 0.0 0.00 0.19 0.01 92 1015.6
20260507123802 52 344 0.0 0.0 0.00 0.19 0.01 92 1015.6
20260507121803 52 344 0.0 0.0 0.00 0.19 0.01 93 1015.5
20260507115803 52 344 0.0 0.0 0.00 0.19 0.01 94 1015.4
20260507115306 52 344 0.0 0.0 0.00 0.19 0.01 93 1015.3
20260507114803 52 344 0.0 0.0 0.00 0.19 0.01 93 1015.3
20260507114303 52 344 0.0 0.0 0.00 0.19 0.01 93 1015.2
20260507113303 52 344 0.0 0.0 0.00 0.19 0.01 93 1014.9
20260507112306 52 344 0.0 0.0 0.00 0.20 0.01 93 1015.0
20260507110302 52 344 0.0 0.0 0.00 0.24 0.01 93 1014.7
20260507105802 52 344 0.0 0.0 0.00 0.27 0.01 93 1014.5
20260507105306 52 344 0.0 0.0 0.00 0.29 0.01 93 1014.3
20260507104303 52 344 0.0 0.0 0.00 0.33 0.01 93 1014.4
20260507102803 52 344 0.0 0.0 0.00 0.39 0.01 93 1014.3
20260507102306 52 344 0.0 0.0 0.00 0.40 0.01 93 1014.3
20260507101303 52 344 0.0 0.0 0.01 0.46 0.01 93 1014.2
20260507092306 53 344 0.0 0.0 0.01 0.75 0.01 93 1014.1
20260507091802 53 344 0.0 0.0 0.00 0.75 0.00 93 1014.2
20260507085802 53 344 0.0 0.0 0.00 0.78 0.00 93 1014.0
20260507085306 53 344 0.0 0.0 0.00 0.79 0.00 93 1014.2
20260507084802 53 344 0.0 0.0 0.00 0.80 0.00 93 1014.2
20260507083303 53 344 0.0 0.0 0.00 0.83 0.00 93 1013.8
20260507082306 53 344 0.0 0.0 0.00 0.83 0.00 93 1013.9
20260507080303 54 344 0.0 0.0 0.00 0.83 0.00 94 1014.2
20260507075306 54 344 0.0 0.0 0.00 0.83 0.00 94 1014.1
20260507073803 54 344 0.0 0.0 0.00 0.83 0.00 94 1014.0
20260507072803 54 344 0.0 0.0 0.00 0.83 0.00 93 1014.0
20260507072306 54 344 0.0 0.0 0.00 0.83 0.00 93 1014.0
20260507071802 54 344 0.0 0.0 0.00 0.83 0.00 93 1014.1
20260507070803 54 344 0.0 0.0 0.00 0.83 0.00 93 1014.2
20260507064803 54 344 0.0 0.0 0.00 0.83 0.00 93 1014.4
20260507063803 54 344 0.0 0.0 0.00 0.83 0.00 94 1014.7
20260507063303 54 344 0.0 0.0 0.00 0.83 0.00 93 1014.8
20260507062803 54 344 0.0 0.0 0.00 0.83 0.00 93 1014.7
20260507061802 54 344 0.0 0.0 0.00 0.83 0.00 93 1014.6
20260507061302 54 344 0.0 0.0 0.00 0.83 0.00 93 1014.3
20260507060802 54 344 0.0 0.0 0.00 0.83 0.00 93 1014.2
20260507055802 54 344 0.0 0.0 0.00 0.83 0.00 93 1014.4
20260507054303 54 344 0.0 0.0 0.00 0.83 0.00 93 1014.3
20260507053303 54 344 0.0 0.0 0.00 0.83 0.00 93 1014.5
20260507052306 55 344 0.0 0.0 0.00 0.83 0.00 93 1014.5
20260507051302 55 344 0.0 0.0 0.00 0.83 0.00 93 1014.9
20260507050813 55 344 0.0 0.0 0.00 0.83 0.00 93 1015.0
20260507050303 55 344 0.0 0.0 0.00 0.83 0.00 93 1014.9
20260507045306 55 344 0.0 0.0 0.00 0.83 0.83 93 1015.2
20260507044304 55 344 0.0 0.0 0.00 0.83 0.83 93 1015.6
20260507043303 55 344 0.0 0.0 0.00 0.83 0.83 93 1015.3
20260507042802 55 344 0.0 0.0 0.00 0.83 0.83 93 1015.3
20260507042306 55 344 0.0 0.0 0.00 0.83 0.83 93 1015.4
20260507041802 55 344 0.0 0.0 0.00 0.83 0.83 93 1015.3
20260507040803 55 344 0.0 0.0 0.00 0.83 0.83 93 1014.9
20260507040302 55 344 0.0 0.0 0.00 0.83 0.83 93 1015.1
20260507035803 55 344 0.0 0.0 0.00 0.83 0.83 93 1015.3
20260507035305 55 344 0.0 0.0 0.00 0.83 0.83 93 1015.5
20260507034803 55 344 0.0 0.0 0.00 0.83 0.83 93 1015.1
20260507034302 55 344 0.0 0.0 0.00 0.83 0.83 93 1015.0
20260507033302 55 344 0.0 0.0 0.00 0.83 0.83 93 1015.0
20260507032803 55 344 0.0 0.0 0.00 0.83 0.83 93 1014.8
20260507032305 55 344 0.0 0.0 0.00 0.83 0.83 93 1015.1
20260507031303 55 344 0.0 0.9 0.00 0.83 0.83 93 1015.0
20260507030803 56 344 0.0 0.9 0.00 0.83 0.83 93 1015.2
20260507025803 56 200 0.0 0.0 0.00 0.83 0.83 94 1014.9
20260507025306 56 200 0.0 0.0 0.00 0.83 0.83 94 1014.7
20260507024803 56 200 0.0 0.0 0.00 0.83 0.83 94 1014.4
20260507024303 56 200 0.0 0.0 0.00 0.83 0.83 94 1014.4
20260507023803 56 200 0.0 0.0 0.01 0.83 0.83 94 1014.1
20260507022803 56 200 0.0 0.0 0.01 0.83 0.83 94 1014.2
20260507021303 56 200 0.0 0.0 0.02 0.83 0.83 94 1014.6
20260507020803 56 200 0.0 0.0 0.02 0.83 0.83 94 1014.4
20260507015802 56 200 0.0 0.0 0.02 0.83 0.83 94 1014.9
20260507014302 56 200 0.0 0.0 0.02 0.83 0.83 94 1015.2
20260507013302 56 200 0.0 0.0 0.01 0.82 0.82 94 1015.1
20260507011803 56 200 0.0 0.0 0.00 0.81 0.81 94 1014.7
20260507011303 56 200 0.0 0.0 0.00 0.81 0.81 93 1014.6
20260507010303 56 200 0.0 0.0 0.00 0.81 0.81 93 1014.4
20260507005803 56 200 0.0 0.0 0.00 0.81 0.81 93 1014.1
20260507003803 56 200 0.0 0.0 0.00 0.81 0.81 92 1013.7
20260507002306 56 200 0.0 0.0 0.00 0.81 0.81 93 1013.6
20260506235803 57 200 0.0 0.0 0.00 0.81 0.81 93 1013.3
20260506234803 57 200 0.0 0.0 0.00 0.81 0.81 93 1013.8
20260506232802 57 200 0.0 0.0 0.00 0.81 0.81 93 1014.3
20260506231803 56 200 0.0 0.0 0.00 0.81 0.81 93 1014.6
20260506230802 56 200 0.0 0.0 0.01 0.81 0.81 93 1014.4
20260506230303 56 200 0.0 0.0 0.02 0.81 0.81 93 1013.9
20260506225803 56 200 0.0 0.0 0.02 0.81 0.81 93 1014.2
20260506223803 56 200 0.0 0.0 0.02 0.81 0.81 93 1014.3
20260506223303 56 200 0.0 0.0 0.02 0.81 0.81 93 1014.6
20260506222306 56 200 0.0 0.0 0.02 0.81 0.81 93 1014.6
20260506221303 56 200 0.0 0.0 0.01 0.80 0.80 92 1014.7
20260506220803 56 200 0.0 0.0 0.01 0.80 0.80 92 1014.9
20260506215803 56 200 0.0 0.0 0.00 0.79 0.79 92 1014.9
20260506215306 56 200 0.0 0.0 0.00 0.79 0.79 92 1014.9
20260506214803 56 200 0.0 0.0 0.00 0.79 0.79 92 1014.8
20260506214303 56 200 0.0 0.0 0.00 0.79 0.79 92 1014.6
20260506212306 57 200 0.0 0.0 0.00 0.79 0.79 91 1014.0
20260506211303 57 200 0.0 0.0 0.00 0.79 0.79 92 1013.5
20260506210803 57 200 0.0 0.0 0.00 0.79 0.79 92 1013.5
20260506205802 57 200 0.0 0.0 0.00 0.79 0.79 92 1013.5
20260506204803 57 200 0.0 0.0 0.00 0.79 0.79 92 1013.7
20260506204302 57 200 0.0 0.0 0.00 0.79 0.79 92 1013.8
20260506203803 57 200 0.0 0.0 0.00 0.79 0.79 91 1013.8
20260506201803 57 200 0.0 0.0 0.00 0.79 0.79 91 1013.9
20260506201303 58 200 0.0 0.0 0.00 0.79 0.79 91 1013.5
20260506195306 58 200 0.0 0.0 0.01 0.79 0.79 92 1013.4
20260506194803 58 200 0.0 0.0 0.01 0.79 0.79 92 1013.4
20260506194303 58 200 0.0 0.0 0.02 0.79 0.79 92 1013.4
20260506193803 57 200 0.0 0.0 0.03 0.79 0.79 92 1013.3
20260506193302 57 200 0.0 0.0 0.03 0.79 0.79 92 1013.7
20260506192803 57 200 0.0 0.0 0.03 0.79 0.79 93 1013.6
20260506192305 57 200 0.0 0.0 0.03 0.79 0.79 93 1013.7
20260506191303 57 200 0.0 0.0 0.03 0.79 0.79 93 1013.8
20260506190303 57 200 0.0 0.0 0.03 0.79 0.79 92 1013.6
20260506185803 57 200 0.0 0.0 0.03 0.79 0.79 92 1014.2
20260506184303 57 200 0.0 0.0 0.01 0.77 0.77 92 1014.5
20260506183803 57 200 0.0 0.0 0.00 0.76 0.76 92 1014.3
20260506182306 57 200 0.0 0.0 0.00 0.76 0.76 92 1014.1
20260506181303 57 200 0.0 0.0 0.00 0.76 0.76 92 1013.7
20260506180303 57 200 0.0 0.0 0.00 0.76 0.76 92 1013.8
20260506175306 57 200 0.0 0.0 0.00 0.76 0.76 92 1013.3
20260506174803 57 200 0.0 0.0 0.00 0.76 0.76 92 1013.3
20260506174302 57 200 0.0 0.0 0.00 0.76 0.76 92 1013.6
20260506173303 57 200 0.0 0.0 0.00 0.76 0.76 92 1013.6
20260506172803 57 200 0.0 0.0 0.00 0.76 0.76 92 1013.8
20260506171803 57 200 0.0 0.0 0.00 0.76 0.76 92 1013.8
20260506170802 57 200 0.0 0.0 0.00 0.76 0.76 92 1012.8
20260506165305 57 200 0.0 0.0 0.00 0.76 0.76 92 1013.9
20260506164303 57 200 0.0 0.0 0.00 0.76 0.76 92 1014.3
20260506163803 57 200 0.0 0.0 0.00 0.76 0.76 92 1013.7
20260506162306 57 200 0.0 0.0 0.00 0.76 0.76 92 1013.5
20260506161803 57 200 0.0 0.0 0.00 0.76 0.76 93 1013.3
20260506161302 57 200 0.0 0.0 0.00 0.76 0.76 92 1013.5
20260506160802 56 200 0.0 0.0 0.00 0.76 0.76 92 1013.6